Amateur Radio Satellites - All Passes

Search period start: 18 June 2013 01:01
Search period end: 19 June 2013 01:01
Location: Hopewell Observatory, 38.8698°N, 77.6988°W

Satellite Date Start Highest point End Downlink Frequencies (MHz)
Time Altitude Azimuth
PCSat 18 Jun 01:17:02 01:22:14 51° 113° (ESE) 01:27:29 145.825 MHz
KITSAT 1 18 Jun 01:26:25 01:32:22 21° 38° (NE) 01:38:17 435.175 FM
PANSAT 18 Jun 01:30:52 01:33:11 15° 189° (S) 01:35:31 not established
Oscar 10/S400 18 Jun 01:47:41 07:49:38 75° 171° (S) 12:18:12 145.825 - 145.975 CW/USB, Beacon 145.810 USB
Sapphire 18 Jun 01:51:17 01:56:41 85° 298° (WNW) 02:02:09 437.095 MHz 1200 baud AX-25 AFSK
Oscar 19 18 Jun 02:03:40 02:07:21 20° 93° (E) 02:11:00 437.125 CW, 437.150 USB
SO-50 18 Jun 02:20:08 02:24:55 77° 302° (WNW) 02:29:38 436.795 FM
ITAMSAT 1 18 Jun 02:24:34 02:28:54 26° 95° (E) 02:33:11 435.822 SSB
AO-27 18 Jun 02:25:13 02:29:37 27° 95° (E) 02:33:59 436.795 MHz FM
Oscar 16 18 Jun 02:47:25 02:52:31 63° 101° (ESE) 02:57:35 437.025 USB, Beacon 2401.1428
Uribyol 2 18 Jun 02:57:56 03:03:05 57° 101° (E) 03:08:10 436.500 FM
PCSat 18 Jun 03:01:39 03:05:57 24° 311° (NW) 03:10:17 145.825 MHz
AO-Echo 18 Jun 03:17:41 03:22:17 32° 97° (E) 03:26:56 ?
KITSAT 1 18 Jun 03:20:54 03:29:05 81° 60° (ENE) 03:37:12 435.175 FM
Uosat F 18 Jun 03:37:03 03:40:16 17° 93° (E) 03:43:28 435.120 FM
Sapphire 18 Jun 03:38:07 03:40:57 14° 317° (NW) 03:43:47 437.095 MHz 1200 baud AX-25 AFSK
Oscar 19 18 Jun 03:42:02 03:46:54 45° 289° (WNW) 03:51:44 437.125 CW, 437.150 USB
Gurwin Techsat 1B 18 Jun 03:52:03 03:56:15 23° 94° (E) 04:00:25 435.225 FM
ITAMSAT 1 18 Jun 04:03:41 04:08:26 36° 291° (WNW) 04:13:10 435.822 SSB
AO-27 18 Jun 04:04:27 04:09:10 35° 291° (WNW) 04:13:52 436.795 MHz FM
SO-50 18 Jun 04:04:30 04:06:18 12° 321° (NW) 04:08:06 436.795 FM
UOSAT-12 18 Jun 04:10:26 04:14:22 31° 113° (ESE) 04:18:21 437.025 FM, 437.400 FM
Oscar 16 18 Jun 04:28:24 04:31:20 16° 298° (WNW) 04:34:16 437.025 USB, Beacon 2401.1428
Uribyol 2 18 Jun 04:38:43 04:42:05 18° 297° (WNW) 04:45:26 436.500 FM
TMSAT-1 18 Jun 04:51:35 04:56:50 58° 101° (E) 05:02:02 436.925 FM
AO-Echo 18 Jun 04:56:33 05:00:57 30° 291° (WNW) 05:05:27 ?
Uosat F 18 Jun 05:14:27 05:19:22 52° 288° (WNW) 05:24:15 435.120 FM
KITSAT 1 18 Jun 05:18:05 05:23:30 20° 258° (WSW) 05:28:56 435.175 FM
Gurwin Techsat 1B 18 Jun 05:31:23 05:36:21 41° 290° (WNW) 05:41:17 435.225 FM
AO-7 18 Jun 05:33:08 05:40:59 43° 100° (E) 05:48:45 29.400 - 29.500 MHz
UOSAT-12 18 Jun 05:50:35 05:54:30 28° 310° (NW) 05:58:28 437.025 FM, 437.400 FM
MaSat-1 18 Jun 05:55:31 05:57:59 46° 63° (ENE) 06:00:26 437.345 MHz
TMSAT-1 18 Jun 06:32:49 06:36:17 18° 297° (WNW) 06:39:44 436.925 FM
STRAND 1 18 Jun 06:33:44 06:38:47 65° 73° (ENE) 06:43:53 ?
Saudisat 1A 18 Jun 06:47:14 06:50:30 19° 45° (NE) 06:53:44 436.775 MHz
JAS-1B 18 Jun 07:15:56 07:18:54 14° 93° (E) 07:22:01 435.800 - 435.900 CW/SSB
AO-7 18 Jun 07:25:59 07:33:41 43° 297° (WNW) 07:41:21 29.400 - 29.500 MHz
Hamsat 18 Jun 07:36:19 07:40:15 31° 96° (E) 07:44:07 145.90 MHz
STRAND 1 18 Jun 08:15:52 08:18:25 14° 269° (W) 08:20:58 ?
Saudisat 1A 18 Jun 08:26:06 08:30:30 52° 243° (WSW) 08:34:48 436.775 MHz
Sapphire 18 Jun 09:00:40 09:01:24 10° 39° (NE) 09:02:08 437.095 MHz 1200 baud AX-25 AFSK
JAS-1B 18 Jun 09:04:08 09:09:58 75° 286° (WNW) 09:16:36 435.800 - 435.900 CW/SSB
Hamsat 18 Jun 09:12:46 09:16:07 22° 292° (WNW) 09:19:26 145.90 MHz
SO-67 18 Jun 09:16:12 09:19:39 45° 285° (WNW) 09:23:04 435.3500 MHz FM
JAS-2 18 Jun 09:25:53 09:27:22 11° 88° (E) 09:28:49 435.800 - 435.900 CW/SSB, 435.910 FM
PCSat 18 Jun 10:06:25 10:11:18 33° 53° (NE) 10:16:08 145.825 MHz
RS-15 18 Jun 10:14:06 10:20:46 17° 98° (E) 10:27:16 29.354 - 29.394 USB, Beacon 29.352 USB
HO-68 18 Jun 10:17:07 10:24:03 49° 101° (E) 10:30:57 435.675 MHz FM
Sapphire 18 Jun 10:40:38 10:46:01 58° 59° (ENE) 10:51:21 437.095 MHz 1200 baud AX-25 AFSK
OPAL 18 Jun 10:45:11 10:47:05 12° 93° (E) 10:48:58 ?
Oscar 11 18 Jun 10:49:27 10:53:46 55° 100° (E) 10:58:03 145.825 FM, Beacon 2401.500 USB
SO-50 18 Jun 10:53:37 10:58:08 66° 57° (ENE) 11:02:34 436.795 FM
JAS-2 18 Jun 11:07:47 11:13:12 72° 286° (WNW) 11:18:20 435.800 - 435.900 CW/SSB, 435.910 FM
PCSat 18 Jun 11:49:50 11:54:41 34° 250° (WSW) 11:59:31 145.825 MHz
HO-68 18 Jun 12:05:18 12:11:26 32° 298° (WNW) 12:17:34 435.675 MHz FM
RS-15 18 Jun 12:19:18 12:31:19 78° 117° (ESE) 12:42:50 29.354 - 29.394 USB, Beacon 29.352 USB
OPAL 18 Jun 12:21:29 12:26:25 70° 288° (WNW) 12:31:23 ?
Sapphire 18 Jun 12:25:23 12:28:56 18° 255° (WSW) 12:32:28 437.095 MHz 1200 baud AX-25 AFSK
Oscar 11 18 Jun 12:27:26 12:29:30 13° 296° (WNW) 12:31:34 145.825 FM, Beacon 2401.500 USB
SO-50 18 Jun 12:36:31 12:38:08 12° 253° (WSW) 12:39:45 436.795 FM
UOSAT-12 18 Jun 12:41:14 12:44:51 22° 47° (NE) 12:48:27 437.025 FM, 437.400 FM
Oscar 19 18 Jun 13:19:22 13:23:36 26° 67° (ENE) 13:27:51 437.125 CW, 437.150 USB
ITAMSAT 1 18 Jun 13:41:24 13:46:04 35° 69° (ENE) 13:50:46 435.822 SSB
AO-27 18 Jun 13:42:11 13:46:54 36° 69° (ENE) 13:51:39 436.795 MHz FM
Oscar 16 18 Jun 14:03:09 14:08:19 81° 75° (ENE) 14:13:31 437.025 USB, Beacon 2401.1428
Uribyol 2 18 Jun 14:14:35 14:19:47 75° 75° (ENE) 14:25:01 436.500 FM
UOSAT-12 18 Jun 14:20:49 14:25:13 45° 244° (WSW) 14:29:36 437.025 FM, 437.400 FM
AO-Echo 18 Jun 14:30:03 14:34:15 33° 69° (ENE) 14:38:31 ?
RS-15 18 Jun 14:34:22 14:44:53 35° 321° (NW) 14:55:03 29.354 - 29.394 USB, Beacon 29.352 USB
AO-7 18 Jun 14:46:07 14:47:40 11° 44° (NE) 14:49:14 29.400 - 29.500 MHz
Uosat F 18 Jun 14:49:18 14:53:02 21° 65° (ENE) 14:56:46 435.120 FM
Oscar 19 18 Jun 14:58:04 15:02:47 36° 263° (W) 15:07:31 437.125 CW, 437.150 USB
Gurwin Techsat 1B 18 Jun 15:11:55 15:16:35 33° 68° (ENE) 15:21:17 435.225 FM
ITAMSAT 1 18 Jun 15:21:13 15:25:35 27° 264° (W) 15:29:59 435.822 SSB
AO-27 18 Jun 15:22:11 15:26:28 26° 265° (W) 15:30:48 436.795 MHz FM
Oscar 16 18 Jun 15:47:04 15:48:15 11° 271° (W) 15:49:26 437.025 USB, Beacon 2401.1428
Uribyol 2 18 Jun 15:57:54 15:59:48 12° 270° (W) 16:01:42 436.500 FM
KITSAT 1 18 Jun 15:59:47 16:01:17 11° 97° (E) 16:02:48 435.175 FM
AO-Echo 18 Jun 16:09:23 16:13:06 23° 266° (W) 16:16:53 ?
TMSAT-1 18 Jun 16:11:09 16:16:26 78° 75° (ENE) 16:21:45 436.925 FM
Uosat F 18 Jun 16:26:47 16:31:31 43° 261° (W) 16:36:19 435.120 FM
AO-7 18 Jun 16:30:33 16:38:30 52° 65° (ENE) 16:46:29 29.400 - 29.500 MHz
ISS 18 Jun 16:32:37 16:35:54 83° 141° (SE) 16:39:12 145.800 FM
Gurwin Techsat 1B 18 Jun 16:51:56 16:56:32 30° 264° (W) 17:01:09 435.225 FM
RS-15 18 Jun 16:55:17 17:02:14 17° 354° (N) 17:09:03 29.354 - 29.394 USB, Beacon 29.352 USB
KITSAT 1 18 Jun 17:47:12 17:55:10 69° 115° (ESE) 18:03:12 435.175 FM
TMSAT-1 18 Jun 17:55:10 17:56:56 12° 271° (W) 17:58:42 436.925 FM
JAS-1B 18 Jun 18:02:42 18:05:04 12° 59° (ENE) 18:07:20 435.800 - 435.900 CW/SSB
ISS 18 Jun 18:10:42 18:12:57 17° 338° (NNW) 18:15:12 145.800 FM
AO-7 18 Jun 18:24:07 18:31:27 34° 263° (W) 18:38:53 29.400 - 29.500 MHz
Hamsat 18 Jun 18:29:46 18:33:00 21° 68° (ENE) 18:36:16 145.90 MHz
MaSat-1 18 Jun 18:46:06 18:47:55 12° 105° (ESE) 18:49:37 437.345 MHz
STRAND 1 18 Jun 18:46:26 18:50:35 24° 95° (E) 18:54:43 ?
RS-15 18 Jun 19:11:14 19:20:17 27° 31° (NNE) 19:29:05 29.354 - 29.394 USB, Beacon 29.352 USB
KITSAT 1 18 Jun 19:44:19 19:51:12 30° 315° (NW) 19:58:08 435.175 FM
JAS-1B 18 Jun 19:47:50 19:55:03 84° 75° (ENE) 20:01:11 435.800 - 435.900 CW/SSB
SO-67 18 Jun 19:50:30 19:53:56 48° 75° (ENE) 19:57:24 435.3500 MHz FM
Hamsat 18 Jun 20:04:57 20:08:51 33° 263° (W) 20:12:48 145.90 MHz
MaSat-1 18 Jun 20:23:47 20:29:36 81° 294° (WNW) 20:34:04 437.345 MHz
STRAND 1 18 Jun 20:25:07 20:29:51 38° 291° (WNW) 20:34:35 ?
HO-68 18 Jun 20:44:46 20:50:58 33° 63° (ENE) 20:57:11 435.675 MHz FM
JAS-2 18 Jun 21:16:40 21:23:40 46° 70° (ENE) 21:30:01 435.800 - 435.900 CW/SSB, 435.910 FM
RS-15 18 Jun 21:23:33 21:34:41 81° 58° (ENE) 21:45:34 29.354 - 29.394 USB, Beacon 29.352 USB
ISS 18 Jun 21:26:41 21:28:36 14° 19° (NNE) 21:30:30 145.800 FM
JAS-1B 18 Jun 21:42:58 21:46:06 13° 267° (W) 21:49:03 435.800 - 435.900 CW/SSB
Oscar 11 18 Jun 21:43:38 21:47:39 38° 72° (ENE) 21:51:42 145.825 FM, Beacon 2401.500 USB
PANSAT 18 Jun 21:50:19 21:51:19 11° 164° (SSE) 21:52:18 not established
OPAL 18 Jun 21:58:10 22:01:53 21° 63° (ENE) 22:05:36 ?
HO-68 18 Jun 22:31:38 22:38:24 46° 260° (W) 22:45:15 435.675 MHz FM
Saudisat 1A 18 Jun 22:31:48 22:36:15 57° 117° (ESE) 22:40:46 436.775 MHz
JAS-2 18 Jun 23:02:07 23:08:42 33° 263° (W) 23:14:48 435.800 - 435.900 CW/SSB, 435.910 FM
ISS 18 Jun 23:02:30 23:05:47 68° 37° (NE) 23:09:04 145.800 FM
Oscar 11 18 Jun 23:21:04 23:24:00 18° 267° (W) 23:26:57 145.825 FM, Beacon 2401.500 USB
PANSAT 18 Jun 23:28:22 23:30:58 17° 177° (S) 23:33:35 not established
OPAL 18 Jun 23:35:41 23:40:29 44° 259° (WSW) 23:45:16 ?
RS-15 18 Jun 23:37:38 23:45:39 24° 258° (WSW) 23:53:40 29.354 - 29.394 USB, Beacon 29.352 USB
Saudisat 1A 19 Jun 00:13:05 00:16:18 19° 315° (NW) 00:19:33 436.775 MHz
ISS 19 Jun 00:40:53 00:42:03 12° 232° (SW) 00:43:14 145.800 FM
PCSat 19 Jun 00:47:05 00:51:59 37° 110° (ESE) 00:56:56 145.825 MHz

Developed and maintained by Chris Peat, Heavens-Above GmbH. Please read the updated FAQ before sending e-mail. Imprint. DLR
